SCP
2 2 1 1 1 1 1 1 0 1 1 2 3 3 3 2 1 1 1 1 1 1 1 1 1 1 1 1 1 1 1 1 1 1 0 0 0 0 1 1 1 1 1
2 2 1 1 1 1 0 0 1 1 2 2 3 3 2 2 1 1 0 0 0 1 1 1 1 1 1 1 1 1 1 1 1 1 0 0 0 0 0 1 1 1 1
1 1 1 1 1 1 0 0 1 1 2 2 2 2 2 1 1 1 0 0 0 1 1 1 1 1 1 1 1 2 2 1 1 1 1 0 0 0 0 0 0 1 1
1 1 1 1 1 0 0 0 0 1 1 1 1 1 1 1 1 0 0 0 0 0 1 1 1 1 1 1 2 2 2 2 1 1 1 1 1 0 0 0 0 0 0
1 1 1 1 0 0 0 0 0 0 0 0 0 1 0 0 0 0 0 0 0 0 0 1 1 2 2 1 1 2 2 2 2 2 1 1 1 1 1 0 0 0 0
1 1 1 1 0 0 0 0 0 0 0 0 0 0 0 0 0 0 0 0 0 0 0 0 1 1 1 1 1 1 1 2 2 2 1 1 1 1 1 1 1 0 0
2 2 1 1 0 0 0 0 0 0 0 0 0 0 0 0 0 0 0 0 0 0 0 0 0 0 1 1 1 1 1 1 2 2 2 1 1 1 1 1 1 1 0
3 2 2 1 1 0 0 0 0 0 0 0 0 0 0 0 0 0 0 0 0 0 0 0 0 0 0 0 1 1 1 1 2 2 2 1 1 1 1 1 1 0 0
3 3 2 1 1 0 0 0 0 0 0 0 0 0 0 0 0 0 0 0 0 0 0 0 0 0 0 0 0 0 1 1 2 1 1 1 0 0 0 0 0 0 0
3 3 2 1 0 0 0 0 0 0 0 0 0 0 0 0 0 0 0 0 0 0 0 0 0 0 0 0 0 0 1 1 1 1 0 0 0 0 0 0 0 0 0
3 2 1 0 0 0 0 0 0 0 0 0 0 0 0 0 0 0 0 0 0 0 0 0 0 0 0 0 0 0 0 0 0 0 0 0 0 0 0 0 0 0 0
2 1 0 0 0 0 0 0 0 0 0 0 0 0 0 0 0 0 0 0 0 0 0 0 0 0 0 0 0 0 0 0 0 0 0 0 0 0 0 0 0 0 0
1 0 0 0 0 0 0 0 0 0 0 0 0 0 0 0 0 0 0 0 0 0 0 0 0 0 0 0 0 0 0 0 0 0 0 0 0 0 0 0 0 0 0
0 0 0 0 0 0 0 0 0 0 0 0 0 0 0 0 0 0 0 0 0 0 0 0 0 0 0 0 0 0 0 0 0 0 0 0 0 0 0 0 0 0 0
0 0 0 0 0 0 0 0 0 0 0 0 0 0 0 0 0 0 0 0 0 0 0 0 0 0 0 0 0 0 0 0 0 0 0 0 0 0 0 0 0 0 0
0 0 0 0 0 0 0 0 0 0 0 0 0 0 0 0 0 0 0 0 0 0 0 0 0 0 0 0 0 0 0 0 0 0 0 0 0 0 0 0 0 0 0
0 0 0 0 0 0 0 0 0 0 0 0 0 0 0 0 0 0 0 0 0 0 0 0 0 0 0 0 0 0 0 0 0 0 0 0 0 0 0 0 0 0 0
0 0 0 0 0 0 0 0 0 0 0 0 0 0 0 0 0 0 0 0 0 0 0 0 0 0 0 0 0 0 0 0 0 0 0 0 0 0 0 0 0 0 0
0 0 0 0 0 0 0 0 0 0 0 0 0 0 0 0 0 0 0 0 0 0 0 0 0 0 0 0 0 0 0 0 0 0 0 0 0 0 0 0 0 0 0
0 0 0 0 0 0 0 0 0 0 0 0 0 0 0 0 0 0 0 0 0 0 0 0 0 0 0 0 0 0 0 0 0 0 0 0 0 0 0 0 0 0 0
0 0 0 0 0 0 0 0 0 0 0 0 0 0 0 0 0 0 0 0 0 0 0 0 0 0 0 0 0 0 0 0 0 0 0 0 0 0 0 0 0 0 0
0 0 0 0 0 0 0 0 0 0 0 0 0 0 0 0 0 0 0 0 0 0 0 0 0 0 0 0 0 0 0 0 0 0 0 0 0 0 0 0 0 0 0
0 0 0 0 0 0 0 0 0 0 0 0 0 0 0 0 0 0 0 0 0 0 0 0 0 0 0 0 0 0 0 0 0 0 0 0 0 0 0 0 0 0 0
0 0 0 0 0 0 0 0 0 0 0 0 0 0 0 0 0 0 0 0 0 0 0 0 0 0 0 0 0 0 0 0 0 0 0 0 0 0 0 0 0 0 0
0 0 0 0 0 0 0 0 0 0 0 0 0 0 0 0 0 0 0 0 0 0 0 0 0 0 0 0 0 0 0 0 0 0 0 0 0 0 0 0 0 0 0
0 0 0 0 0 0 0 0 0 0 0 0 0 0 0 0 0 0 0 0 0 0 0 0 0 0 0 0 0 0 0 0 0 0 0 0 0 0 0 0 0 0 0
Wind_Speed
5 5 5 5 5 6 6 6 7 6 4 2 2 2 2 2 3 3 4 4 4 3 3 2 2 2 1 1 1 0 0 1 0 0 1 1 1 1 1 2 1 1 1
6 6 6 6 7 6 6 6 6 5 4 2 2 1 2 1 2 3 4 5 5 5 3 3 2 2 1 2 1 0 0 0 0 0 0 1 1 1 2 2 1 2 2
7 6 6 6 6 6 6 6 6 6 5 4 2 2 2 2 3 4 4 5 5 5 5 4 3 3 2 2 2 1 0 1 1 1 1 1 2 1 1 2 2 2 2
7 6 6 6 6 5 5 6 6 6 6 4 4 4 3 2 2 2 2 4 5 6 5 5 4 4 3 3 2 2 1 1 1 1 1 1 1 1 1 1 2 3 3
7 7 7 6 6 6 5 6 6 7 6 5 5 5 4 3 2 2 4 5 5 6 6 5 5 4 3 3 3 2 1 1 1 1 1 1 1 1 2 1 1 2 3
8 8 7 7 7 6 6 6 7 7 7 6 6 6 5 4 4 4 4 4 3 4 6 5 5 4 4 4 3 3 2 1 1 1 1 1 1 1 1 2 1 1 2
8 7 7 6 6 6 6 6 7 7 6 6 6 6 5 5 5 4 4 4 3 4 5 5 5 4 4 4 3 3 3 2 2 1 1 1 1 1 1 2 2 2 2
7 7 6 6 6 6 6 6 7 6 6 6 6 5 5 4 3 4 3 3 3 3 4 5 5 5 5 4 4 3 3 3 2 2 1 1 1 0 1 2 3 3 2
8 8 7 6 5 6 5 5 6 6 6 6 5 6 5 5 5 4 4 3 3 3 5 5 5 5 5 5 4 3 3 3 3 3 2 1 1 1 1 1 2 4 4
8 7 6 5 5 5 5 5 5 5 5 5 5 4 5 5 5 4 5 5 4 4 5 5 5 5 5 5 4 4 4 4 4 3 3 3 3 3 2 2 2 2 3
9 7 6 5 5 5 4 4 4 5 5 5 5 5 5 5 5 5 5 5 5 5 5 5 5 6 6 6 5 6 5 6 5 5 5 5 4 3 3 3 3 3 4
9 8 7 6 5 4 4 4 4 4 4 4 5 5 5 5 6 6 5 5 5 5 5 5 6 7 7 6 6 6 7 7 7 6 6 5 4 5 4 4 5 5 5
9 8 7 5 5 4 4 3 3 3 4 4 5 5 5 5 5 5 5 5 5 6 6 6 7 7 6 6 6 6 7 7 7 6 6 5 5 6 5 5 6 5 6
9 8 6 5 4 4 3 3 3 3 4 4 5 5 5 4 4 5 5 6 6 6 6 6 7 6 6 6 6 7 7 7 7 7 7 7 6 5 5 6 7 7 8
10 9 7 5 5 4 3 3 3 3 3 4 5 4 4 4 5 5 5 6 6 6 6 7 7 7 6 6 6 7 8 8 8 8 8 8 10 10 7 6 6 7 7
10 9 8 7 5 5 4 3 3 3 3 4 4 3 4 5 5 5 5 6 6 6 7 7 7 8 6 9 10 8 7 8 8 8 8 8 10 12 13 13 10 7 7
9 9 8 7 6 4 4 3 3 3 3 3 3 3 4 5 5 5 6 6 5 6 7 7 7 7 8 10 11 11 8 8 8 8 7 7 8 9 9 11 13 12 10
9 8 7 6 5 4 4 4 3 3 3 3 3 3 4 4 4 5 5 5 4 5 5 6 6 6 7 9 9 10 8 8 8 8 7 7 7 7 7 8 9 9 8
8 7 6 6 6 5 5 4 3 3 3 3 3 3 3 4 4 5 4 3 4 5 4 4 6 6 7 9 8 7 6 6 7 7 7 7 7 8 9 9 8 8 6
7 7 7 6 6 5 5 5 4 4 3 2 3 3 3 4 4 3 3 3 3 4 4 6 6 6 6 9 8 6 4 5 5 5 7 9 8 8 8 6 6 6 4
8 8 7 6 5 5 5 5 4 3 2 3 4 4 3 3 3 3 3 3 3 4 5 6 5 6 7 7 9 7 4 3 4 4 4 4 7 8 8 6 4 3 2
8 7 7 5 4 5 5 5 4 2 3 4 4 4 3 3 3 3 3 3 3 4 4 4 5 4 5 6 7 9 7 4 4 3 2 3 6 7 7 5 5 6 4
7 6 7 6 4 4 5 5 3 3 5 5 4 4 4 4 3 3 3 3 3 3 3 3 3 3 3 4 7 8 7 6 3 2 3 4 6 6 5 6 6 5 3
6 6 7 6 4 3 4 4 4 4 5 5 4 3 4 4 3 3 2 2 2 2 2 2 2 2 2 3 3 3 3 5 4 3 4 6 7 6 4 4 4 3 2
6 6 6 6 5 4 4 4 4 5 5 4 3 3 3 3 3 3 2 1 0 1 1 1 1 1 1 2 3 2 2 2 2 2 3 3 3 4 3 3 3 3 2
6 6 6 5 5 4 4 4 4 5 5 4 3 2 2 2 2 2 2 3 1 1 1 3 2 1 2 3 3 3 3 3 2 3 2 2 2 2 2 2 2 2 2
Wind_Direction
106 91 77 70 65 52 47 44 52 40 33 33 52 58 49 33 45 47 36 26 18 27 35 15 8 16 356 321 332 287 276 301 313 316 318 336 15 16 344 314 309 328 332
110 94 76 64 56 53 45 44 46 45 42 40 50 68 85 60 51 37 33 24 20 20 33 31 14 16 11 5 355 337 290 280 255 192 260 302 334 2 1 359 3 5 33
123 103 82 69 64 54 50 52 43 38 39 44 68 78 62 48 29 24 23 18 18 20 24 23 20 18 12 358 350 346 252 254 255 234 208 218 239 330 8 24 25 23 36
122 113 99 84 72 61 56 56 52 45 38 45 66 74 73 61 35 22 20 16 22 23 23 21 23 23 18 6 351 349 308 237 252 276 260 250 204 191 256 33 36 41 39
126 111 99 89 75 63 60 56 55 48 39 43 57 70 70 70 53 37 32 25 18 20 24 23 22 19 14 12 8 1 1 308 249 247 263 262 265 212 201 190 72 52 37
119 108 99 92 78 63 55 54 55 44 37 43 50 66 74 68 59 44 32 23 14 14 17 21 21 15 10 12 6 360 1 340 306 280 245 232 232 212 186 171 142 95 46
126 118 108 94 82 69 58 52 57 49 40 48 51 57 65 65 58 44 34 25 16 10 5 12 11 9 7 8 6 11 5 354 346 321 290 273 261 214 173 152 137 106 68
129 122 113 101 89 77 65 58 56 49 41 46 47 48 51 54 49 42 39 29 15 1 358 9 11 9 11 12 13 20 10 7 2 358 342 323 349 64 151 158 150 133 97
136 127 115 102 92 79 67 63 64 53 43 44 48 45 41 45 43 38 37 28 15 10 14 17 16 14 16 17 19 22 13 18 18 11 10 26 32 47 66 122 152 149 143
133 124 114 103 92 85 78 69 67 61 48 44 45 50 42 40 42 43 37 29 21 20 20 20 19 19 20 20 26 23 16 31 25 26 41 46 46 56 55 75 86 110 128
141 133 121 110 102 89 80 70 61 58 50 43 44 48 43 41 44 45 35 28 25 23 25 22 26 26 24 24 34 34 31 37 37 38 48 47 48 59 52 60 77 89 107
141 135 128 123 113 99 84 73 63 56 47 46 49 47 45 45 46 42 32 32 31 28 28 30 35 33 32 32 40 42 39 41 42 42 49 46 49 57 57 69 79 87 95
139 134 131 129 122 109 94 81 68 58 50 53 53 47 44 45 43 38 33 35 35 34 33 36 37 33 33 36 39 47 47 45 44 44 50 47 56 63 66 75 82 89 96
148 142 137 132 123 111 101 92 73 62 61 60 58 49 41 45 44 42 38 36 37 40 36 37 38 35 37 38 41 48 47 45 45 45 47 50 58 69 76 83 86 94 97
155 151 148 139 130 122 111 98 81 67 70 68 58 47 42 49 52 48 44 41 41 42 39 41 37 35 37 34 41 49 51 48 47 44 43 50 60 63 70 88 96 101 100
159 153 149 146 147 143 132 113 88 71 76 75 63 53 52 54 54 52 51 50 43 37 40 39 38 39 36 40 50 59 56 50 49 45 41 48 54 62 67 74 79 91 107
157 156 157 154 151 145 134 121 103 86 84 80 71 64 64 59 53 59 57 50 42 40 41 35 38 40 34 45 54 57 62 54 47 45 44 50 48 57 70 72 68 66 69
155 155 150 143 138 130 120 116 109 105 99 90 79 74 75 71 63 61 56 47 43 43 40 35 33 41 33 42 57 60 59 55 46 42 44 54 47 49 68 76 70 63 56
148 144 141 137 133 130 127 121 110 106 102 95 88 81 86 83 74 66 56 48 55 51 43 37 36 41 28 33 51 62 59 55 43 36 38 47 55 51 67 75 72 63 51
128 129 127 122 128 130 126 121 119 115 113 106 101 92 91 94 89 76 63 51 63 63 58 50 38 38 32 31 46 55 63 58 43 34 31 39 51 54 64 75 78 70 46
123 126 127 129 136 134 125 121 121 126 126 111 101 92 88 93 91 76 66 68 70 65 58 55 41 36 32 33 43 52 61 64 55 42 26 21 41 57 63 71 75 85 85
122 127 126 125 123 128 127 125 127 126 112 106 99 93 84 81 85 80 69 66 73 70 56 54 42 28 23 31 39 51 57 62 66 44 17 19 46 58 61 67 79 84 84
127 127 130 125 119 126 133 133 133 122 113 105 100 94 83 72 72 81 77 64 64 74 61 61 49 19 10 19 33 41 45 50 59 37 38 55 62 62 58 60 63 64 68
127 128 130 130 130 131 131 133 130 122 116 110 103 96 89 75 60 59 67 74 67 76 74 70 54 22 8 9 8 12 18 27 37 30 36 52 60 59 53 48 45 48 58
130 132 137 139 141 134 129 131 130 123 117 113 107 100 91 86 70 54 44 58 58 209 161 163 156 86 3 322 328 345 358 356 4 26 37 37 34 34 30 30 32 36 47
133 134 136 139 140 136 134 135 137 134 127 118 111 113 114 103 94 79 44 37 40 15 175 190 189 243 257 294 331 353 1 7 47 70 54 39 34 30 17 12 9 13 20